Data No, UTC Date,UTC Time,Latitude,Longitude,Course(deg),Temp(degC),Sal(psu)
515,2021/6/21,8:34,42-36.90N,141-37.04E,211,14.148,30.543
516,2021/6/21,8:35,42-36.66N,141-36.84E,208,14.246,30.7374
517,2021/6/21,8:36,42-36.40N,141-36.80E,173,14.626,31.0762
518,2021/6/21,8:37,42-36.14N,141-36.94E,158,14.747,31.2627
519,2021/6/21,8:38,42-35.89N,141-37.13E,147,14.933,31.4445
520,2021/6/21,8:39,42-35.63N,141-37.35E,148,15.003,31.6758
521,2021/6/21,8:40,42-35.36N,141-37.57E,148,15.047,31.8517
522,2021/6/21,8:41,42-35.10N,141-37.79E,148,14.935,31.9755
523,2021/6/21,8:42,42-34.80N,141-37.98E,159,14.937,32.0262
524,2021/6/21,8:43,42-34.50N,141-38.14E,158,14.673,32.0729
525,2021/6/21,8:44,42-34.20N,141-38.31E,156,14.545,32.1408
526,2021/6/21,8:45,42-33.90N,141-38.49E,156,14.382,32.1594
527,2021/6/21,8:46,42-33.59N,141-38.67E,156,14.237,32.139
528,2021/6/21,8:47,42-33.28N,141-38.84E,157,14.112,32.1718
529,2021/6/21,8:48,42-32.96N,141-39.02E,158,14.103,32.1913
530,2021/6/21,8:49,42-32.65N,141-39.18E,158,14.183,32.149
531,2021/6/21,8:50,42-32.33N,141-39.35E,158,14.225,32.1268
532,2021/6/21,8:51,42-32.02N,141-39.52E,158,14.33,32.1132
533,2021/6/21,8:52,42-31.70N,141-39.69E,158,14.416,32.1178
534,2021/6/21,8:53,42-31.38N,141-39.86E,157,14.573,32.1177
535,2021/6/21,8:54,42-31.07N,141-40.03E,158,14.652,32.1293
536,2021/6/21,8:55,42-30.75N,141-40.21E,158,14.731,32.2126
537,2021/6/21,8:56,42-30.44N,141-40.38E,157,14.73,32.2641
538,2021/6/21,8:57,42-30.12N,141-40.55E,157,14.739,32.3308
539,2021/6/21,8:58,42-29.80N,141-40.72E,158,14.826,32.3848
540,2021/6/21,8:59,42-29.49N,141-40.89E,156,14.821,32.3893
541,2021/6/21,9:00,42-29.18N,141-41.11E,151,14.672,32.3914
542,2021/6/21,9:01,42-28.85N,141-41.37E,149,14.617,32.3662
543,2021/6/21,9:02,42-28.58N,141-41.63E,143,14.513,32.3691
544,2021/6/21,9:03,42-28.31N,141-41.93E,137,14.692,32.3621
545,2021/6/21,9:04,42-28.12N,141-42.21E,129,14.736,32.348
546,2021/6/21,9:05,42-27.93N,141-42.59E,122,14.732,32.3181
547,2021/6/21,9:06,42-27.76N,141-43.00E,119,14.575,32.3184
548,2021/6/21,9:07,42-27.58N,141-43.43E,118,14.578,32.3428
549,2021/6/21,9:08,42-27.42N,141-43.84E,118,14.578,32.3822
550,2021/6/21,9:09,42-27.26N,141-44.24E,118,14.425,32.4029
551,2021/6/21,9:10,42-27.10N,141-44.64E,118,14.467,32.4
552,2021/6/21,9:11,42-26.96N,141-44.99E,118,14.755,32.4249
553,2021/6/21,9:12,42-26.80N,141-45.38E,118,14.945,32.4836
554,2021/6/21,9:13,42-26.63N,141-45.79E,119,15.024,32.5445
555,2021/6/21,9:14,42-26.45N,141-46.23E,119,15.012,32.571
556,2021/6/21,9:15,42-26.27N,141-46.66E,120,14.936,32.5822
557,2021/6/21,9:16,42-26.09N,141-47.06E,120,14.975,32.6127
558,2021/6/21,9:17,42-25.92N,141-47.46E,119,14.911,32.6394
559,2021/6/21,9:18,42-25.74N,141-47.87E,120,14.878,32.6685
560,2021/6/21,9:19,42-25.59N,141-48.24E,119,14.869,32.6827
561,2021/6/21,9:20,42-25.41N,141-48.68E,117,14.855,32.711
562,2021/6/21,9:21,42-25.27N,141-49.10E,113,14.88,32.7069
563,2021/6/21,9:22,42-25.12N,141-49.52E,115,14.949,32.738
564,2021/6/21,9:23,42-24.97N,141-49.94E,116,14.807,32.7468
565,2021/6/21,9:24,42-24.81N,141-50.35E,118,14.634,32.7129
566,2021/6/21,9:25,42-24.64N,141-50.75E,120,14.763,32.5022
567,2021/6/21,9:26,42-24.47N,141-51.14E,120,14.982,32.4282
568,2021/6/21,9:27,42-24.29N,141-51.54E,121,15.152,32.5674
569,2021/6/21,9:28,42-24.10N,141-51.93E,122,15.093,32.7221
570,2021/6/21,9:29,42-23.95N,141-52.26E,122,15.05,32.78
571,2021/6/21,9:30,42-23.76N,141-52.65E,122,14.913,32.8746
572,2021/6/21,9:31,42-23.58N,141-53.03E,122,14.488,32.8663
573,2021/6/21,9:32,42-23.40N,141-53.43E,122,14.5,32.6779
574,2021/6/21,9:33,42-23.22N,141-53.82E,122,14.684,32.6087
575,2021/6/21,9:34,42-23.04N,141-54.20E,122,14.685,32.4755
576,2021/6/21,9:35,42-22.86N,141-54.60E,122,14.611,32.3865
577,2021/6/21,9:36,42-22.68N,141-54.98E,122,14.374,32.3422
578,2021/6/21,9:37,42-22.50N,141-55.37E,122,14.56,32.3907
579,2021/6/21,9:38,42-22.31N,141-55.77E,122,15.189,32.3769
580,2021/6/21,9:39,42-22.13N,141-56.15E,122,15.471,32.2701
581,2021/6/21,9:40,42-21.95N,141-56.55E,122,15.453,32.1661
582,2021/6/21,9:41,42-21.77N,141-56.93E,122,15.134,32.1067
583,2021/6/21,9:42,42-21.59N,141-57.32E,122,15.538,32.158
584,2021/6/21,9:43,42-21.40N,141-57.71E,122,15.551,32.1261
585,2021/6/21,9:44,42-21.23N,141-58.10E,121,15.488,32.1404
586,2021/6/21,9:45,42-21.05N,141-58.49E,121,15.385,32.2675
587,2021/6/21,9:46,42-20.87N,141-58.89E,121,15.27,32.363
588,2021/6/21,9:47,42-20.67N,141-59.34E,121,15.035,32.4449
589,2021/6/21,9:48,42-20.49N,141-59.74E,120,14.863,32.6935
590,2021/6/21,9:49,42-20.31N,142-00.13E,121,14.882,32.9321
591,2021/6/21,9:50,42-20.16N,142-00.47E,121,15.073,33.1073
592,2021/6/21,9:51,42-19.98N,142-00.87E,120,14.988,33.2166
593,2021/6/21,9:52,42-19.81N,142-01.28E,119,14.544,33.293
594,2021/6/21,9:53,42-19.63N,142-01.70E,119,13.793,33.2715
595,2021/6/21,9:54,42-19.44N,142-02.16E,119,14.133,33.1235
596,2021/6/21,9:55,42-19.26N,142-02.59E,119,16.065,33.133
597,2021/6/21,9:56,42-19.09N,142-03.02E,118,16.985,33.5504
598,2021/6/21,9:57,42-18.94N,142-03.40E,118,17.308,33.8198
599,2021/6/21,9:58,42-18.77N,142-03.82E,118,17.438,33.992
600,2021/6/21,9:59,42-18.60N,142-04.24E,118,17.579,34.0616
601,2021/6/21,10:00,42-18.42N,142-04.67E,118,17.574,34.0927
602,2021/6/21,10:01,42-18.25N,142-05.11E,118,17.568,34.1128
603,2021/6/21,10:02,42-18.07N,142-05.54E,118,17.586,34.1158
604,2021/6/21,10:03,42-17.90N,142-05.97E,118,17.618,34.1068
605,2021/6/21,10:04,42-17.72N,142-06.40E,118,17.645,34.1102
606,2021/6/21,10:05,42-17.55N,142-06.83E,118,17.644,34.1294
607,2021/6/21,10:06,42-17.36N,142-07.27E,119,17.639,34.1205
608,2021/6/21,10:07,42-17.19N,142-07.69E,119,17.589,34.1237
609,2021/6/21,10:08,42-17.01N,142-08.13E,119,17.536,34.1277
610,2021/6/21,10:09,42-16.83N,142-08.55E,119,17.471,34.1158
611,2021/6/21,10:10,42-16.65N,142-08.98E,119,17.44,34.0989
612,2021/6/21,10:11,42-16.47N,142-09.42E,119,17.434,34.104
613,2021/6/21,10:12,42-16.29N,142-09.84E,119,17.407,34.0954
614,2021/6/21,10:13,42-16.13N,142-10.28E,115,17.39,34.0946
615,2021/6/21,10:14,42-15.94N,142-10.77E,117,17.378,34.0921
616,2021/6/21,10:15,42-15.77N,142-11.21E,118,17.369,34.0907
617,2021/6/21,10:16,42-15.60N,142-11.61E,119,17.344,34.0885
618,2021/6/21,10:17,42-15.44N,142-12.00E,119,17.275,34.0915
619,2021/6/21,10:18,42-15.26N,142-12.43E,119,17.212,34.0725
620,2021/6/21,10:19,42-15.08N,142-12.85E,120,17.201,34.0643
621,2021/6/21,10:20,42-14.90N,142-13.27E,120,17.228,34.0456
622,2021/6/21,10:21,42-14.71N,142-13.69E,120,17.28,34.0506
623,2021/6/21,10:22,42-14.53N,142-14.11E,121,17.32,34.0538
624,2021/6/21,10:23,42-14.34N,142-14.53E,121,17.309,34.0545
625,2021/6/21,10:24,42-14.15N,142-14.94E,121,17.3,34.0666
626,2021/6/21,10:25,42-13.96N,142-15.36E,120,17.235,34.0716
627,2021/6/21,10:26,42-13.77N,142-15.79E,121,17.159,34.0674
628,2021/6/21,10:27,42-13.58N,142-16.19E,121,17.188,34.0706
629,2021/6/21,10:28,42-13.39N,142-16.61E,121,17.247,34.0852
630,2021/6/21,10:29,42-13.20N,142-17.02E,121,17.22,34.0914
631,2021/6/21,10:30,42-12.98N,142-17.50E,122,17.195,34.0787
632,2021/6/21,10:31,42-12.80N,142-17.89E,122,17.173,34.0831
633,2021/6/21,10:32,42-12.63N,142-18.25E,122,17.235,34.0782
634,2021/6/21,10:33,42-12.44N,142-18.66E,122,17.222,34.0773
635,2021/6/21,10:34,42-12.25N,142-19.05E,122,17.125,34.0827
636,2021/6/21,10:35,42-12.07N,142-19.45E,121,16.576,34.0715
637,2021/6/21,10:36,42-11.88N,142-19.85E,121,16.2,34.0106
638,2021/6/21,10:37,42-11.70N,142-20.24E,121,16.404,33.734
639,2021/6/21,10:38,42-11.52N,142-20.63E,122,16.384,33.3933
640,2021/6/21,10:39,42-11.34N,142-21.00E,122,15.758,33.2274
641,2021/6/21,10:40,42-11.16N,142-21.39E,122,15.019,33.1241
642,2021/6/21,10:41,42-10.98N,142-21.78E,122,14.812,32.8882
643,2021/6/21,10:42,42-10.80N,142-22.16E,122,14.889,32.6513
644,2021/6/21,10:43,42-10.61N,142-22.54E,121,15.112,32.6963
645,2021/6/21,10:44,42-10.45N,142-22.92E,120,15.132,32.7298
646,2021/6/21,10:45,42-10.27N,142-23.31E,121,14.847,32.7064
647,2021/6/21,10:46,42-10.10N,142-23.70E,120,14.891,32.634
648,2021/6/21,10:47,42-09.93N,142-24.08E,120,14.045,32.6492
649,2021/6/21,10:48,42-09.76N,142-24.47E,120,14.008,32.5583
650,2021/6/21,10:49,42-09.59N,142-24.86E,120,14.04,32.5197
651,2021/6/21,10:50,42-09.42N,142-25.24E,120,14.151,32.4758
652,2021/6/21,10:51,42-09.25N,142-25.64E,120,14.247,32.4624
653,2021/6/21,10:52,42-09.08N,142-26.02E,120,14.321,32.4419
654,2021/6/21,10:53,42-08.90N,142-26.41E,121,14.377,32.4225
655,2021/6/21,10:54,42-08.73N,142-26.80E,120,14.428,32.4215
656,2021/6/21,10:55,42-08.56N,142-27.19E,120,14.54,32.3995
657,2021/6/21,10:56,42-08.38N,142-27.58E,121,14.577,32.3606
658,2021/6/21,10:57,42-08.21N,142-27.97E,120,14.526,32.3691
659,2021/6/21,10:58,42-08.04N,142-28.37E,120,14.274,32.3981
660,2021/6/21,10:59,42-07.87N,142-28.75E,120,14.203,32.3499
661,2021/6/21,11:00,42-07.70N,142-29.14E,119,14.202,32.3156
662,2021/6/21,11:01,42-07.53N,142-29.55E,119,14.122,32.3325
663,2021/6/21,11:02,42-07.36N,142-29.94E,119,14.141,32.3813
664,2021/6/21,11:03,42-07.20N,142-30.34E,119,14.254,32.4441
665,2021/6/21,11:04,42-07.03N,142-30.73E,119,14.335,32.4849
666,2021/6/21,11:05,42-06.87N,142-31.13E,118,14.595,32.5284
667,2021/6/21,11:06,42-06.69N,142-31.56E,118,14.705,32.596
668,2021/6/21,11:07,42-06.52N,142-31.98E,118,14.671,32.5894
669,2021/6/21,11:08,42-06.35N,142-32.38E,118,14.644,32.4964
670,2021/6/21,11:09,42-06.19N,142-32.77E,118,14.69,32.3814
671,2021/6/21,11:10,42-06.03N,142-33.16E,119,14.707,32.3329
672,2021/6/21,11:11,42-05.86N,142-33.56E,118,14.72,32.3333
673,2021/6/21,11:12,42-05.70N,142-33.95E,119,14.745,32.3266
674,2021/6/21,11:13,42-05.55N,142-34.29E,120,14.76,32.3212
675,2021/6/21,11:14,42-05.38N,142-34.67E,120,14.781,32.3295
676,2021/6/21,11:15,42-05.21N,142-35.05E,120,14.743,32.3556
677,2021/6/21,11:16,42-05.01N,142-35.50E,121,14.729,32.4141
678,2021/6/21,11:17,42-04.84N,142-35.88E,121,14.757,32.4758
679,2021/6/21,11:18,42-04.66N,142-36.27E,121,14.784,32.5397
680,2021/6/21,11:19,42-04.49N,142-36.65E,121,15.016,32.5926
681,2021/6/21,11:20,42-04.31N,142-37.03E,121,15.202,32.7315
682,2021/6/21,11:21,42-04.13N,142-37.42E,121,15.375,32.8406
683,2021/6/21,11:22,42-03.96N,142-37.79E,121,15.91,32.9255
684,2021/6/21,11:23,42-03.79N,142-38.18E,120,16.154,33.134
685,2021/6/21,11:24,42-03.62N,142-38.57E,120,15.985,33.5003
686,2021/6/21,11:25,42-03.45N,142-38.94E,120,15.66,33.8215
687,2021/6/21,11:26,42-03.27N,142-39.34E,120,13.878,33.885
688,2021/6/21,11:27,42-03.10N,142-39.72E,120,12.737,33.64
689,2021/6/21,11:28,42-02.93N,142-40.11E,120,12.691,33.0453
690,2021/6/21,11:29,42-02.76N,142-40.51E,120,12.903,32.8551
691,2021/6/21,11:30,42-02.58N,142-40.90E,120,13.343,32.8795
692,2021/6/21,11:31,42-02.43N,142-41.24E,120,13.755,32.9512
693,2021/6/21,11:32,42-02.26N,142-41.62E,121,14.083,33.0706
694,2021/6/21,11:33,42-02.08N,142-42.01E,121,14.105,33.1791
695,2021/6/21,11:34,42-01.87N,142-42.46E,121,14.023,33.2146
696,2021/6/21,11:35,42-01.70N,142-42.85E,121,13.685,33.1941
697,2021/6/21,11:36,42-01.51N,142-43.24E,121,13.106,33.1731
698,2021/6/21,11:37,42-01.33N,142-43.62E,121,13.141,33.1278
699,2021/6/21,11:38,42-01.15N,142-44.01E,122,13.146,33.1137
700,2021/6/21,11:39,42-00.97N,142-44.40E,122,13.187,33.1258
701,2021/6/21,11:40,42-00.78N,142-44.77E,122,13.035,33.1386
702,2021/6/21,11:41,42-00.60N,142-45.16E,122,13.332,33.0893
703,2021/6/21,11:42,42-00.42N,142-45.54E,122,14.256,33.1063
704,2021/6/21,11:43,42-00.23N,142-45.92E,122,14.742,33.2769
705,2021/6/21,11:44,42-00.04N,142-46.31E,122,15.493,33.45
706,2021/6/21,11:45,41-59.86N,142-46.68E,122,15.652,33.6759
707,2021/6/21,11:46,41-59.68N,142-47.07E,122,15.576,33.7651
708,2021/6/21,11:47,41-59.50N,142-47.45E,122,15.639,33.7677
709,2021/6/21,11:48,41-59.32N,142-47.83E,122,15.616,33.7831
710,2021/6/21,11:49,41-59.13N,142-48.21E,122,15.557,33.8029
711,2021/6/21,11:50,41-58.96N,142-48.59E,121,15.679,33.8105
712,2021/6/21,11:51,41-58.78N,142-48.98E,122,15.598,33.8124
713,2021/6/21,11:52,41-58.60N,142-49.35E,122,15.309,33.7375
714,2021/6/21,11:53,41-58.42N,142-49.73E,122,15.606,33.6095
715,2021/6/21,11:54,41-58.24N,142-50.11E,122,15.391,33.6744
716,2021/6/21,11:55,41-58.07N,142-50.47E,122,15.209,33.6715
717,2021/6/21,11:56,41-57.89N,142-50.85E,122,14.965,33.6462
718,2021/6/21,11:57,41-57.72N,142-51.22E,121,13.519,33.6004
719,2021/6/21,11:58,41-57.55N,142-51.59E,121,15.08,33.333
720,2021/6/21,11:59,41-57.38N,142-51.96E,121,15.484,33.5019
721,2021/6/21,12:00,41-57.21N,142-52.32E,122,15.671,33.7235
722,2021/6/21,12:01,41-57.05N,142-52.70E,119,15.81,33.8176
723,2021/6/21,12:02,41-56.90N,142-53.07E,118,15.982,33.8719
724,2021/6/21,12:03,41-56.75N,142-53.45E,118,16.082,33.915
725,2021/6/21,12:04,41-56.59N,142-53.83E,117,15.226,33.9332
726,2021/6/21,12:05,41-56.45N,142-54.20E,117,13.538,33.8488
727,2021/6/21,12:06,41-56.30N,142-54.59E,117,12.255,33.3781
728,2021/6/21,12:07,41-56.16N,142-54.96E,117,11.466,32.871
729,2021/6/21,12:08,41-56.01N,142-55.33E,117,11.01,32.5547
730,2021/6/21,12:09,41-55.87N,142-55.71E,117,10.677,32.346
731,2021/6/21,12:10,41-55.73N,142-56.08E,117,10.466,32.2495
732,2021/6/21,12:11,41-55.58N,142-56.46E,117,10.134,32.1676
733,2021/6/21,12:12,41-55.43N,142-56.82E,118,10.026,32.0852
734,2021/6/21,12:13,41-55.28N,142-57.19E,118,10.004,32.0157
735,2021/6/21,12:14,41-55.15N,142-57.52E,118,10.02,31.9875
736,2021/6/21,12:15,41-55.00N,142-57.88E,119,10.053,32.01
737,2021/6/21,12:16,41-54.84N,142-58.25E,119,10.144,32.0077
738,2021/6/21,12:17,41-54.69N,142-58.62E,119,10.17,31.9859
739,2021/6/21,12:18,41-54.53N,142-58.99E,119,10.149,31.9686
740,2021/6/21,12:19,41-54.37N,142-59.37E,119,10.251,31.9652
741,2021/6/21,12:20,41-54.21N,142-59.73E,120,10.249,31.9428
742,2021/6/21,12:21,41-54.05N,143-00.10E,121,10.199,31.9123
743,2021/6/21,12:22,41-53.88N,143-00.46E,121,10.184,31.9136
744,2021/6/21,12:23,41-53.71N,143-00.83E,121,10.217,31.9225
745,2021/6/21,12:24,41-53.54N,143-01.20E,121,10.306,31.9149
746,2021/6/21,12:25,41-53.38N,143-01.55E,121,10.345,31.9176
747,2021/6/21,12:26,41-53.21N,143-01.92E,121,10.289,31.902
748,2021/6/21,12:27,41-53.04N,143-02.29E,121,10.339,31.8986
749,2021/6/21,12:28,41-52.87N,143-02.65E,122,10.351,31.8987
750,2021/6/21,12:29,41-52.70N,143-03.02E,122,10.442,31.8925
751,2021/6/21,12:30,41-52.53N,143-03.37E,121,10.501,31.899
752,2021/6/21,12:31,41-52.36N,143-03.74E,122,10.531,31.8992
753,2021/6/21,12:32,41-52.19N,143-04.10E,122,10.575,31.9176
754,2021/6/21,12:33,41-52.02N,143-04.46E,122,10.577,31.9222
755,2021/6/21,12:34,41-51.85N,143-04.82E,123,10.613,31.9201
756,2021/6/21,12:35,41-51.67N,143-05.17E,124,10.671,31.9298
757,2021/6/21,12:36,41-51.49N,143-05.52E,124,10.724,31.9192
758,2021/6/21,12:37,41-51.31N,143-05.88E,125,10.718,31.9296
759,2021/6/21,12:38,41-51.13N,143-06.22E,124,10.762,31.952
760,2021/6/21,12:39,41-50.94N,143-06.57E,124,10.779,31.9615
761,2021/6/21,12:40,41-50.76N,143-06.92E,124,10.792,31.948
762,2021/6/21,12:41,41-50.58N,143-07.27E,124,10.895,31.9288
763,2021/6/21,12:42,41-50.39N,143-07.62E,125,10.957,31.9383
764,2021/6/21,12:43,41-50.21N,143-07.96E,126,10.975,31.9556
765,2021/6/21,12:44,41-50.02N,143-08.31E,125,10.931,31.9343
766,2021/6/21,12:45,41-49.84N,143-08.66E,124,10.806,31.9141
767,2021/6/21,12:46,41-49.66N,143-09.00E,126,10.913,31.8799
768,2021/6/21,12:47,41-49.47N,143-09.35E,125,11.068,31.8766
769,2021/6/21,12:48,41-49.29N,143-09.68E,125,11.063,31.9299
770,2021/6/21,12:49,41-49.10N,143-10.04E,125,11.008,31.9533
771,2021/6/21,12:50,41-48.92N,143-10.37E,126,11.044,31.908
772,2021/6/21,12:51,41-48.73N,143-10.71E,126,11.032,31.9159
773,2021/6/21,12:52,41-48.55N,143-11.07E,122,11.018,31.9049
774,2021/6/21,12:53,41-48.40N,143-11.44E,115,11.021,31.9102
775,2021/6/21,12:54,41-48.28N,143-11.84E,111,11.026,31.9327
776,2021/6/21,12:55,41-48.17N,143-12.23E,109,11.029,31.953
777,2021/6/21,12:56,41-48.06N,143-12.63E,110,11.059,31.9135
778,2021/6/21,12:57,41-47.95N,143-13.04E,109,11.03,31.8767
779,2021/6/21,12:58,41-47.85N,143-13.44E,110,10.899,31.89
780,2021/6/21,12:59,41-47.73N,143-13.85E,110,10.973,31.8308
781,2021/6/21,13:00,41-47.62N,143-14.25E,110,10.919,31.8378
782,2021/6/21,13:01,41-47.55N,143-14.65E,99,10.84,31.8596
783,2021/6/21,13:02,41-47.55N,143-15.07E,86,10.438,31.892
784,2021/6/21,13:03,41-47.59N,143-15.46E,79,10.309,31.9139
785,2021/6/21,13:04,41-47.66N,143-15.87E,76,10.295,31.9573
786,2021/6/21,13:05,41-47.74N,143-16.27E,76,10.911,32.0631
787,2021/6/21,13:06,41-47.81N,143-16.68E,76,11.873,32.1834
788,2021/6/21,13:07,41-47.89N,143-17.10E,75,11.337,32.4248
789,2021/6/21,13:08,41-47.97N,143-17.50E,75,10.461,32.4155
790,2021/6/21,13:09,41-48.04N,143-17.92E,76,10.083,32.255
791,2021/6/21,13:10,41-48.12N,143-18.32E,76,10.041,32.1612
792,2021/6/21,13:11,41-48.19N,143-18.73E,75,10.198,32.1453
793,2021/6/21,13:12,41-48.27N,143-19.15E,76,10.416,32.1459
794,2021/6/21,13:13,41-48.35N,143-19.55E,76,10.246,32.1984
795,2021/6/21,13:14,41-48.42N,143-19.97E,76,10.077,32.2921
796,2021/6/21,13:15,41-48.49N,143-20.37E,76,9.965,32.3286
797,2021/6/21,13:16,41-48.56N,143-20.78E,77,10.124,32.3313
798,2021/6/21,13:17,41-48.67N,143-21.15E,60,10.262,32.3557
799,2021/6/21,13:18,41-48.88N,143-21.42E,36,10.407,32.3688
800,2021/6/21,13:19,41-49.14N,143-21.62E,28,10.337,32.3658
801,2021/6/21,13:20,41-49.40N,143-21.80E,27,10.379,32.3778
802,2021/6/21,13:21,41-49.66N,143-21.99E,28,10.205,32.3662
803,2021/6/21,13:22,41-49.94N,143-22.20E,29,10.156,32.3508
804,2021/6/21,13:23,41-50.20N,143-22.40E,30,10.094,32.3393
805,2021/6/21,13:24,41-50.47N,143-22.62E,31,10.167,32.3168
806,2021/6/21,13:25,41-50.73N,143-22.83E,31,10.102,32.3242
807,2021/6/21,13:26,41-50.99N,143-23.05E,32,10.023,32.3001
808,2021/6/21,13:27,41-51.26N,143-23.28E,32,10.146,32.2995
809,2021/6/21,13:28,41-51.51N,143-23.50E,32,10.169,32.3009
810,2021/6/21,13:29,41-51.77N,143-23.72E,32,10.16,32.3164
811,2021/6/21,13:30,41-52.03N,143-23.94E,33,10.219,32.3481
812,2021/6/21,13:31,41-52.29N,143-24.16E,31,10.293,32.346
813,2021/6/21,13:32,41-52.56N,143-24.38E,31,10.352,32.3561
814,2021/6/21,13:33,41-52.82N,143-24.59E,30,10.383,32.3546
815,2021/6/21,13:34,41-53.09N,143-24.80E,30,10.4,32.3669
816,2021/6/21,13:35,41-53.35N,143-25.01E,30,10.43,32.3742
817,2021/6/21,13:36,41-53.62N,143-25.21E,28,10.606,32.3749
818,2021/6/21,13:37,41-53.89N,143-25.42E,28,10.629,32.4012
819,2021/6/21,13:38,41-54.16N,143-25.61E,29,10.758,32.4134
820,2021/6/21,13:39,41-54.42N,143-25.82E,29,10.852,32.4317
821,2021/6/21,13:40,41-54.70N,143-26.02E,29,10.891,32.4478
822,2021/6/21,13:41,41-54.96N,143-26.21E,29,10.949,32.4432
823,2021/6/21,13:42,41-55.23N,143-26.42E,29,10.998,32.4521
824,2021/6/21,13:43,41-55.50N,143-26.62E,29,11.05,32.4472
825,2021/6/21,13:44,41-55.77N,143-26.82E,28,11.114,32.4415
826,2021/6/21,13:45,41-56.05N,143-27.03E,29,11.066,32.4393
827,2021/6/21,13:46,41-56.32N,143-27.22E,27,11.092,32.4277
828,2021/6/21,13:47,41-56.60N,143-27.42E,28,11.2,32.4446
829,2021/6/21,13:48,41-56.87N,143-27.62E,28,11.239,32.4359
830,2021/6/21,13:49,41-57.14N,143-27.81E,28,11.317,32.4465
831,2021/6/21,13:50,41-57.42N,143-28.02E,28,11.224,32.453
832,2021/6/21,13:51,41-57.68N,143-28.21E,28,11.214,32.4616
833,2021/6/21,13:52,41-57.96N,143-28.41E,28,11.134,32.4688
834,2021/6/21,13:53,41-58.22N,143-28.60E,28,11.092,32.453
835,2021/6/21,13:54,41-58.50N,143-28.79E,27,11.243,32.4493
836,2021/6/21,13:55,41-58.78N,143-29.00E,28,11.174,32.4579
837,2021/6/21,13:56,41-59.04N,143-29.19E,27,11.036,32.4565
838,2021/6/21,13:57,41-59.32N,143-29.38E,26,11.143,32.4529
839,2021/6/21,13:58,41-59.60N,143-29.57E,29,11.217,32.473
840,2021/6/21,13:59,41-59.87N,143-29.78E,29,11.188,32.4825
841,2021/6/21,14:00,42-00.14N,143-29.99E,28,11.002,32.4789
842,2021/6/21,14:01,42-00.41N,143-30.19E,28,11.103,32.491
843,2021/6/21,14:02,42-00.68N,143-30.40E,30,11.244,32.5102
844,2021/6/21,14:03,42-00.94N,143-30.61E,29,11.106,32.5146
845,2021/6/21,14:04,42-01.22N,143-30.82E,29,11.209,32.5155
846,2021/6/21,14:05,42-01.49N,143-31.02E,28,11.329,32.5378
847,2021/6/21,14:06,42-01.76N,143-31.23E,30,11.422,32.5489
848,2021/6/21,14:07,42-02.03N,143-31.44E,29,11.496,32.556
849,2021/6/21,14:08,42-02.30N,143-31.64E,29,11.538,32.5765
850,2021/6/21,14:09,42-02.57N,143-31.84E,28,11.509,32.5953
851,2021/6/21,14:10,42-02.85N,143-32.05E,29,11.358,32.6008
852,2021/6/21,14:11,42-03.12N,143-32.25E,29,11.36,32.5766
853,2021/6/21,14:12,42-03.40N,143-32.46E,29,11.307,32.5691
854,2021/6/21,14:13,42-03.67N,143-32.67E,30,11.166,32.5558
855,2021/6/21,14:14,42-03.94N,143-32.88E,29,10.987,32.5229
856,2021/6/21,14:15,42-04.22N,143-33.09E,29,10.986,32.4993
857,2021/6/21,14:16,42-04.52N,143-33.33E,29,11.053,32.459
858,2021/6/21,14:17,42-04.81N,143-33.54E,28,10.971,32.4708
859,2021/6/21,14:18,42-05.08N,143-33.75E,29,10.703,32.4537
860,2021/6/21,14:19,42-05.35N,143-33.96E,29,10.725,32.4378
861,2021/6/21,14:20,42-05.63N,143-34.17E,29,10.82,32.4851
862,2021/6/21,14:21,42-05.90N,143-34.37E,28,10.872,32.5232
863,2021/6/21,14:22,42-06.18N,143-34.58E,29,11.14,32.5234
864,2021/6/21,14:23,42-06.45N,143-34.78E,30,11.098,32.5567
865,2021/6/21,14:24,42-06.69N,143-34.96E,28,10.975,32.5512
866,2021/6/21,14:25,42-06.97N,143-35.17E,28,11.002,32.5279
867,2021/6/21,14:26,42-07.24N,143-35.36E,28,11.017,32.5246
868,2021/6/21,14:27,42-07.52N,143-35.57E,28,11.044,32.5297
869,2021/6/21,14:28,42-07.79N,143-35.77E,29,11.089,32.5371
870,2021/6/21,14:29,42-08.06N,143-35.98E,29,11.132,32.5518
871,2021/6/21,14:30,42-08.34N,143-36.19E,28,11.006,32.5571
872,2021/6/21,14:31,42-08.61N,143-36.39E,28,11.094,32.5533
873,2021/6/21,14:32,42-08.89N,143-36.60E,29,11.334,32.5713
874,2021/6/21,14:33,42-09.16N,143-36.80E,28,11.501,32.6091
875,2021/6/21,14:34,42-09.43N,143-37.00E,28,11.504,32.6333
876,2021/6/21,14:35,42-09.71N,143-37.21E,28,11.451,32.6437
877,2021/6/21,14:36,42-09.98N,143-37.42E,29,11.409,32.6389
878,2021/6/21,14:37,42-10.26N,143-37.63E,29,11.308,32.6258
879,2021/6/21,14:38,42-10.54N,143-37.83E,28,11.21,32.5957
880,2021/6/21,14:39,42-10.82N,143-38.03E,28,11.171,32.5635
881,2021/6/21,14:40,42-11.10N,143-38.24E,29,11.222,32.5433
882,2021/6/21,14:41,42-11.37N,143-38.45E,28,11.274,32.5373
883,2021/6/21,14:42,42-11.68N,143-38.68E,28,11.366,32.5385
884,2021/6/21,14:43,42-11.97N,143-38.89E,28,11.396,32.5525
885,2021/6/21,14:44,42-12.21N,143-39.07E,29,11.094,32.564
886,2021/6/21,14:45,42-12.49N,143-39.27E,29,11.079,32.5305
887,2021/6/21,14:46,42-12.76N,143-39.48E,29,10.886,32.5164
888,2021/6/21,14:47,42-13.04N,143-39.69E,28,10.805,32.4808
889,2021/6/21,14:48,42-13.32N,143-39.89E,29,10.852,32.4573
890,2021/6/21,14:49,42-13.60N,143-40.10E,28,10.965,32.4565
891,2021/6/21,14:50,42-13.88N,143-40.31E,29,11.105,32.4624
892,2021/6/21,14:51,42-14.15N,143-40.53E,30,11.178,32.4854
893,2021/6/21,14:52,42-14.44N,143-40.75E,30,11.244,32.5042
894,2021/6/21,14:53,42-14.71N,143-40.96E,30,11.196,32.5179
895,2021/6/21,14:54,42-14.98N,143-41.19E,30,11.048,32.5194
896,2021/6/21,14:55,42-15.26N,143-41.41E,30,10.686,32.5057
897,2021/6/21,14:56,42-15.54N,143-41.63E,29,10.813,32.467
898,2021/6/21,14:57,42-15.82N,143-41.85E,29,11.08,32.4597
899,2021/6/21,14:58,42-16.09N,143-42.06E,30,10.922,32.4737
900,2021/6/21,14:59,42-16.37N,143-42.28E,30,10.799,32.4549
901,2021/6/21,15:00,42-16.65N,143-42.51E,30,10.941,32.447
902,2021/6/21,15:01,42-16.92N,143-42.72E,30,10.724,32.446
903,2021/6/21,15:02,42-17.20N,143-42.94E,29,10.789,32.4351
904,2021/6/21,15:03,42-17.48N,143-43.15E,29,10.898,32.4629
905,2021/6/21,15:04,42-17.76N,143-43.37E,30,10.923,32.4819
906,2021/6/21,15:05,42-18.04N,143-43.60E,30,10.744,32.474
907,2021/6/21,15:06,42-18.31N,143-43.81E,30,10.488,32.4612
908,2021/6/21,15:07,42-18.59N,143-44.03E,29,10.484,32.4651
909,2021/6/21,15:08,42-18.87N,143-44.25E,30,10.454,32.4772
910,2021/6/21,15:09,42-19.15N,143-44.46E,30,10.468,32.4831
911,2021/6/21,15:10,42-19.43N,143-44.68E,29,10.53,32.4919